Regina University, Saskatchewan

5:56 PM CST on April 21, 2018 (GMT -0600)
Regina University

Weather History for CWDJ - October, 2012

Change the Weather History Date:

Sunday, October 7, 2012

  Actual Average (CYQR) Record (CYQR)
Temperature  
Mean Temperature 34 °F -  
Max Temperature 47 °F 54 °F 84 °F (2003)
Min Temperature 22 °F 29 °F 8 °F (2000)
Degree Days  
Heating Degree Days 30    
Moisture  
Dew Point 28 °F    
Average Humidity 69    
Maximum Humidity 87    
Minimum Humidity 45    
Precipitation  
Precipitation 0.00 in - - ()
Sea Level Pressure  
Sea Level Pressure 29.88 in    
Wind  
Wind Speed 7 mph ()    
Max Wind Speed 13 mph    
Max Gust Speed -    
Averages and records for this station are not official NWS values.
T = Trace of Precipitation, MM = Missing Value Source: Averaged Metar Reports

Daily Weather History Graph

Daily Weather History Graph

Search for Another Location

Airport or City:

Astronomy

Oct. 07, 2012 Rise Set
Actual Time 7:09 AM CST 6:22 PM CST
Civil Twilight 6:36 AM CST 6:55 PM CST
Nautical Twilight 5:58 AM CST 7:32 PM CST
Astronomical Twilight 5:20 AM CST 8:10 PM CST
Moon 11:12 PM CST (10/7) 2:13 PM CST (10/7)
Length of Visible Light 12h 18m
Length of Day
11h 13m
Waning Gibbous, 55% of the Moon is Illuminated
Oct 7
Waning Gibbous
Oct 8
Last Quarter
Oct 15
New
Oct 21
First Quarter
Oct 29
Full

Hourly Weather History & Observations

Time (CST) Temp. Windchill Dew Point Humidity Pressure Visibility Wind Dir Wind Speed Gust Speed Precip Events Conditions
12:00 AM 34 °F - 21 °F 45% 30.01 in - West 9.2 mph - -  
12:00 AM 33.6 °F 26.2 °F 20.7 °F 59% 30.01 in - West 9.2 mph - N/A   Unknown
1:00 AM 29.7 °F 22.8 °F 18.7 °F 64% 30.01 in - West 6.9 mph - N/A   Unknown
2:00 AM 29.1 °F 25.4 °F 20.1 °F 69% 30.00 in - West 3.5 mph - N/A   Unknown
3:00 AM 29.5 °F 25.9 °F 19.9 °F 68% 29.99 in - West 3.5 mph - N/A   Unknown
4:00 AM 29.3 °F 25.6 °F 21.2 °F 72% 29.98 in - West 3.5 mph - N/A   Unknown
5:00 AM 25.5 °F 17.8 °F 20.3 °F 81% 29.98 in - WNW 6.9 mph - N/A   Unknown
6:00 AM 23 °F - 18 °F 73% 29.99 in - WNW 6.9 mph - -  
6:00 AM 23.0 °F 14.7 °F 18.0 °F 81% 29.99 in - WNW 6.9 mph - N/A   Unknown
7:00 AM 22.8 °F 13.6 °F 19.4 °F 87% 29.99 in - West 8.1 mph - N/A   Unknown
8:00 AM 25.2 °F 18.3 °F 21.4 °F 86% 29.99 in - WNW 5.8 mph - N/A   Unknown
9:00 AM 31.6 °F 24.4 °F 25.2 °F 77% 29.99 in - WNW 8.1 mph - N/A   Unknown
10:00 AM 39.0 °F 33.4 °F 29.1 °F 68% 29.95 in - NW 8.1 mph - N/A   Unknown
12:00 PM 43 °F - 30 °F 48% 29.93 in - WNW 6.9 mph - -  
12:00 PM 43.2 °F 39.0 °F 29.8 °F 59% 29.93 in - WNW 6.9 mph - N/A   Unknown
1:00 PM 45.5 °F 44.2 °F 30.0 °F 55% 29.90 in - SW 3.5 mph - N/A   Unknown
2:00 PM 44.4 °F 42.0 °F 36.0 °F 72% 29.87 in - SW 4.6 mph - N/A   Unknown
3:00 PM 45.3 °F 41.6 °F 35.4 °F 68% 29.83 in - SSE 6.9 mph - N/A   Unknown
4:00 PM 45.3 °F 39.7 °F 35.4 °F 68% 29.81 in - SSE 11.5 mph - N/A   Unknown
5:00 PM 45.5 °F 39.6 °F 34.7 °F 66% 29.78 in - SSE 12.7 mph - N/A   Unknown
6:00 PM 45 °F - 36 °F 61% 29.74 in - SE 12.7 mph - -  
6:00 PM 45.3 °F 39.3 °F 36.0 °F 70% 29.74 in - SE 12.7 mph - N/A   Unknown
7:00 PM 44.4 °F 38.2 °F 35.2 °F 70% 29.71 in - SE 12.7 mph - N/A   Unknown
8:00 PM 44.1 °F 42.5 °F 34.9 °F 70% 29.68 in - NE 3.5 mph - N/A   Unknown
9:00 PM 43.5 °F 37.9 °F 34.5 °F 71% 29.64 in - SSE 10.4 mph - N/A   Unknown
10:00 PM 41.5 °F - 33.6 °F 73% 29.63 in - ESE 2.3 mph - N/A   Unknown
11:00 PM 41.9 °F 36.9 °F 36.7 °F 82% 29.65 in - NNW 8.1 mph - N/A   Unknown